Time,TemperatureF,DewpointF,PressureIn,WindDirection,WindDirectionDegrees,WindSpeedMPH,WindSpeedGustMPH,Humidity,HourlyPrecipIn,Conditions,Clouds,dailyrainin,SoftwareType,DateUTC
2013-06-16 00:01:00,63.3,58.0,29.95,NNW,329,1.0,1.0,83,0.00,,,0.00,LWC V2.10 B1702,2013-06-16 04:01:00,
2013-06-16 00:06:00,63.2,58.3,29.96,WNW,284,0.0,2.0,84,0.00,,,0.00,LWC V2.10 B1702,2013-06-16 04:06:00,
2013-06-16 00:11:00,63.2,58.3,29.96,West,261,0.0,3.0,84,0.00,,,0.00,LWC V2.10 B1702,2013-06-16 04:11:00,
2013-06-16 00:16:00,63.2,58.3,29.96,WNW,288,0.0,1.0,84,0.00,,,0.00,LWC V2.10 B1702,2013-06-16 04:16:00,
2013-06-16 00:21:00,63.2,58.6,29.96,WNW,301,0.0,3.0,85,0.00,,,0.00,LWC V2.10 B1702,2013-06-16 04:21:00,
2013-06-16 00:26:00,63.2,58.6,29.96,WNW,286,0.0,2.0,85,0.00,,,0.00,LWC V2.10 B1702,2013-06-16 04:26:00,
2013-06-16 00:31:00,63.2,58.6,29.96,SW,227,0.0,4.0,85,0.00,,,0.00,LWC V2.10 B1702,2013-06-16 04:31:00,
2013-06-16 00:36:00,63.3,59.0,29.96,WSW,240,0.0,1.0,86,0.00,,,0.00,LWC V2.10 B1702,2013-06-16 04:36:00,
2013-06-16 00:41:00,63.2,58.9,29.96,West,269,0.0,1.0,86,0.00,,,0.00,LWC V2.10 B1702,2013-06-16 04:41:00,
2013-06-16 00:46:00,63.2,58.9,29.96,NW,322,0.0,1.0,86,0.00,,,0.00,LWC V2.10 B1702,2013-06-16 04:46:00,
2013-06-16 00:51:00,63.2,58.9,29.95,WSW,257,1.0,3.0,86,0.00,,,0.00,LWC V2.10 B1702,2013-06-16 04:51:00,
2013-06-16 00:56:00,63.1,59.2,29.95,WSW,256,0.0,0.0,87,0.00,,,0.00,LWC V2.10 B1702,2013-06-16 04:56:00,
2013-06-16 01:01:00,63.1,59.2,29.96,WSW,257,0.0,1.0,87,0.00,,,0.00,LWC V2.10 B1702,2013-06-16 05:01:00,
2013-06-16 01:06:00,63.1,59.2,29.96,WSW,250,0.0,1.0,87,0.00,,,0.00,LWC V2.10 B1702,2013-06-16 05:06:00,
2013-06-16 01:11:00,63.0,59.1,29.96,SW,218,0.0,2.0,87,0.00,,,0.00,LWC V2.10 B1702,2013-06-16 05:11:00,
2013-06-16 01:16:00,63.0,59.4,29.95,WSW,255,0.0,1.0,88,0.00,,,0.00,LWC V2.10 B1702,2013-06-16 05:16:00,
2013-06-16 01:21:00,63.0,59.4,29.95,West,268,0.0,0.0,88,0.00,,,0.00,LWC V2.10 B1702,2013-06-16 05:21:00,
2013-06-16 01:26:00,62.9,59.3,29.95,West,265,0.0,1.0,88,0.00,,,0.00,LWC V2.10 B1702,2013-06-16 05:26:00,
2013-06-16 01:31:00,62.8,59.2,29.95,SE,128,0.0,1.0,88,0.00,,,0.00,LWC V2.10 B1702,2013-06-16 05:31:00,
2013-06-16 01:36:00,62.7,59.1,29.95,SE,128,0.0,0.0,88,0.00,,,0.00,LWC V2.10 B1702,2013-06-16 05:36:00,
2013-06-16 01:41:00,62.7,59.1,29.95,West,259,0.0,1.0,88,0.00,,,0.00,LWC V2.10 B1702,2013-06-16 05:41:00,
2013-06-16 01:46:00,62.7,59.1,29.94,WSW,242,0.0,2.0,88,0.00,,,0.00,LWC V2.10 B1702,2013-06-16 05:46:00,
2013-06-16 01:51:00,62.7,59.4,29.94,SW,222,0.0,1.0,89,0.00,,,0.00,LWC V2.10 B1702,2013-06-16 05:51:00,
2013-06-16 01:56:00,62.7,59.4,29.94,SSW,198,1.0,2.0,89,0.00,,,0.00,LWC V2.10 B1702,2013-06-16 05:56:00,
2013-06-16 02:01:00,62.7,59.4,29.94,NE,42,0.0,0.0,89,0.00,,,0.00,LWC V2.10 B1702,2013-06-16 06:01:00,
2013-06-16 02:06:00,62.6,59.3,29.94,NE,42,0.0,0.0,89,0.00,,,0.00,LWC V2.10 B1702,2013-06-16 06:06:00,
2013-06-16 02:11:00,62.6,59.3,29.94,NE,42,0.0,0.0,89,0.00,,,0.00,LWC V2.10 B1702,2013-06-16 06:11:00,
2013-06-16 02:16:00,62.5,59.2,29.94,NE,40,0.0,0.0,89,0.00,,,0.00,LWC V2.10 B1702,2013-06-16 06:16:00,
2013-06-16 02:21:00,62.3,59.0,29.94,WSW,250,0.0,1.0,89,0.00,,,0.00,LWC V2.10 B1702,2013-06-16 06:21:00,
2013-06-16 02:26:00,62.1,59.1,29.95,West,270,0.0,0.0,90,0.00,,,0.00,LWC V2.10 B1702,2013-06-16 06:26:00,
2013-06-16 02:31:00,62.0,59.0,29.94,West,270,0.0,2.0,90,0.00,,,0.00,LWC V2.10 B1702,2013-06-16 06:31:00,
2013-06-16 02:36:00,61.9,58.9,29.95,NW,315,0.0,2.0,90,0.00,,,0.00,LWC V2.10 B1702,2013-06-16 06:36:00,
2013-06-16 02:41:00,61.8,58.8,29.95,WSW,250,0.0,1.0,90,0.00,,,0.00,LWC V2.10 B1702,2013-06-16 06:41:00,
2013-06-16 02:46:00,61.8,58.8,29.95,WSW,252,0.0,0.0,90,0.00,,,0.00,LWC V2.10 B1702,2013-06-16 06:46:00,
2013-06-16 02:51:00,61.8,59.1,29.95,WNW,290,0.0,1.0,91,0.00,,,0.00,LWC V2.10 B1702,2013-06-16 06:51:00,
2013-06-16 02:56:00,61.8,59.1,29.95,WNW,297,0.0,1.0,91,0.00,,,0.00,LWC V2.10 B1702,2013-06-16 06:56:00,
2013-06-16 03:01:00,61.8,59.1,29.95,WNW,300,0.0,0.0,91,0.00,,,0.00,LWC V2.10 B1702,2013-06-16 07:01:00,
2013-06-16 03:06:00,61.8,59.1,29.95,WNW,300,0.0,0.0,91,0.00,,,0.00,LWC V2.10 B1702,2013-06-16 07:06:00,
2013-06-16 03:11:00,61.6,58.9,29.95,WNW,300,0.0,0.0,91,0.00,,,0.00,LWC V2.10 B1702,2013-06-16 07:11:00,
2013-06-16 03:16:00,61.5,58.8,29.95,WNW,289,0.0,0.0,91,0.00,,,0.00,LWC V2.10 B1702,2013-06-16 07:16:00,
2013-06-16 03:21:00,61.5,58.8,29.95,WNW,289,0.0,0.0,91,0.00,,,0.00,LWC V2.10 B1702,2013-06-16 07:21:00,
2013-06-16 03:26:00,61.5,58.8,29.95,WSW,240,0.0,3.0,91,0.00,,,0.00,LWC V2.10 B1702,2013-06-16 07:26:00,
2013-06-16 03:31:00,61.4,58.7,29.95,NW,315,0.0,1.0,91,0.00,,,0.00,LWC V2.10 B1702,2013-06-16 07:31:00,
2013-06-16 03:36:00,61.4,58.7,29.95,NW,304,0.0,0.0,91,0.00,,,0.00,LWC V2.10 B1702,2013-06-16 07:36:00,
2013-06-16 03:41:00,61.4,58.7,29.95,NW,304,0.0,0.0,91,0.00,,,0.00,LWC V2.10 B1702,2013-06-16 07:41:00,
2013-06-16 03:46:00,61.2,58.5,29.95,NW,304,1.0,1.0,91,0.00,,,0.00,LWC V2.10 B1702,2013-06-16 07:46:00,
2013-06-16 03:51:00,61.1,58.4,29.95,NW,304,0.0,0.0,91,0.00,,,0.00,LWC V2.10 B1702,2013-06-16 07:51:00,
2013-06-16 03:56:00,61.1,58.4,29.95,NW,304,0.0,0.0,91,0.00,,,0.00,LWC V2.10 B1702,2013-06-16 07:56:00,
2013-06-16 04:01:00,61.0,58.7,29.95,West,265,0.0,1.0,92,0.00,,,0.00,LWC V2.10 B1702,2013-06-16 08:01:00,
2013-06-16 04:06:00,60.9,58.6,29.95,West,265,0.0,0.0,92,0.00,,,0.00,LWC V2.10 B1702,2013-06-16 08:06:00,
2013-06-16 04:11:00,60.8,58.2,29.95,West,265,0.0,0.0,91,0.00,,,0.00,LWC V2.10 B1702,2013-06-16 08:11:00,
2013-06-16 04:16:00,60.6,58.0,29.95,West,265,0.0,0.0,91,0.00,,,0.00,LWC V2.10 B1702,2013-06-16 08:16:00,
2013-06-16 04:21:00,60.6,58.3,29.95,North,355,0.0,1.0,92,0.00,,,0.00,LWC V2.10 B1702,2013-06-16 08:21:00,
2013-06-16 04:26:00,60.6,58.3,29.94,North,355,0.0,0.0,92,0.00,,,0.00,LWC V2.10 B1702,2013-06-16 08:26:00,
2013-06-16 04:31:00,60.6,58.3,29.94,NNW,346,0.0,0.0,92,0.00,,,0.00,LWC V2.10 B1702,2013-06-16 08:31:00,
2013-06-16 04:36:00,60.5,58.2,29.94,WNW,299,0.0,0.0,92,0.00,,,0.00,LWC V2.10 B1702,2013-06-16 08:36:00,
2013-06-16 04:41:00,60.4,58.1,29.94,NNW,337,0.0,0.0,92,0.00,,,0.00,LWC V2.10 B1702,2013-06-16 08:41:00,
2013-06-16 04:46:00,60.4,58.1,29.94,WSW,243,0.0,0.0,92,0.00,,,0.00,LWC V2.10 B1702,2013-06-16 08:46:00,
2013-06-16 04:51:00,60.4,58.1,29.94,WSW,243,0.0,0.0,92,0.00,,,0.00,LWC V2.10 B1702,2013-06-16 08:51:00,
2013-06-16 04:56:00,60.4,58.1,29.94,WSW,243,0.0,0.0,92,0.00,,,0.00,LWC V2.10 B1702,2013-06-16 08:56:00,
2013-06-16 05:01:00,60.4,58.1,29.95,WNW,290,0.0,1.0,92,0.00,,,0.00,LWC V2.10 B1702,2013-06-16 09:01:00,
2013-06-16 05:06:00,60.4,58.1,29.95,NW,310,1.0,1.0,92,0.00,,,0.00,LWC V2.10 B1702,2013-06-16 09:06:00,
2013-06-16 05:11:00,60.4,58.4,29.95,West,279,0.0,0.0,93,0.00,,,0.00,LWC V2.10 B1702,2013-06-16 09:11:00,
2013-06-16 05:16:00,60.5,58.5,29.95,West,279,0.0,0.0,93,0.00,,,0.00,LWC V2.10 B1702,2013-06-16 09:16:00,
2013-06-16 05:21:00,60.5,58.5,29.95,West,279,0.0,0.0,93,0.00,,,0.00,LWC V2.10 B1702,2013-06-16 09:21:00,
2013-06-16 05:26:00,60.6,58.6,29.95,West,279,0.0,0.0,93,0.00,,,0.00,LWC V2.10 B1702,2013-06-16 09:26:00,
2013-06-16 05:31:00,60.7,58.7,29.95,West,279,0.0,0.0,93,0.00,,,0.00,LWC V2.10 B1702,2013-06-16 09:31:00,
2013-06-16 05:36:00,60.7,58.7,29.95,WSW,244,0.0,2.0,93,0.00,,,0.00,LWC V2.10 B1702,2013-06-16 09:36:00,
2013-06-16 05:41:00,60.7,58.7,29.95,WSW,244,0.0,0.0,93,0.00,,,0.00,LWC V2.10 B1702,2013-06-16 09:41:00,
2013-06-16 05:46:00,60.8,58.8,29.95,WSW,245,0.0,0.0,93,0.00,,,0.00,LWC V2.10 B1702,2013-06-16 09:46:00,
2013-06-16 05:51:00,60.8,58.8,29.95,WSW,245,0.0,0.0,93,0.00,,,0.00,LWC V2.10 B1702,2013-06-16 09:51:00,
2013-06-16 05:53:00,60.8,58.8,29.95,WSW,245,0.0,0.0,93,0.00,,,0.00,LWC V2.10 B1702,2013-06-16 09:53:00,
2013-06-16 05:58:00,60.8,58.8,29.95,WSW,245,0.0,0.0,93,0.00,,,0.00,LWC V2.10 B1702,2013-06-16 09:58:00,
2013-06-16 06:03:00,60.8,58.8,29.95,WSW,245,0.0,0.0,93,0.00,,,0.00,LWC V2.10 B1702,2013-06-16 10:03:00,
2013-06-16 06:08:00,60.9,58.9,29.95,WSW,245,0.0,0.0,93,0.00,,,0.00,LWC V2.10 B1702,2013-06-16 10:08:00,
2013-06-16 06:13:00,60.9,58.9,29.95,WSW,245,0.0,0.0,93,0.00,,,0.00,LWC V2.10 B1702,2013-06-16 10:13:00,
2013-06-16 06:18:00,61.0,59.0,29.95,West,281,0.0,0.0,93,0.00,,,0.00,LWC V2.10 B1702,2013-06-16 10:18:00,
2013-06-16 06:23:00,61.0,59.0,29.95,West,281,0.0,0.0,93,0.00,,,0.00,LWC V2.10 B1702,2013-06-16 10:23:00,
2013-06-16 06:28:00,61.1,59.1,29.95,West,281,0.0,0.0,93,0.00,,,0.00,LWC V2.10 B1702,2013-06-16 10:28:00,
2013-06-16 06:33:00,61.1,59.1,29.95,West,281,0.0,0.0,93,0.00,,,0.00,LWC V2.10 B1702,2013-06-16 10:33:00,
2013-06-16 06:38:00,61.2,59.2,29.95,West,281,0.0,0.0,93,0.00,,,0.00,LWC V2.10 B1702,2013-06-16 10:38:00,
2013-06-16 06:43:00,61.3,59.3,29.95,West,281,0.0,0.0,93,0.00,,,0.00,LWC V2.10 B1702,2013-06-16 10:43:00,
2013-06-16 06:48:00,61.4,59.4,29.95,West,281,0.0,1.0,93,0.00,,,0.00,LWC V2.10 B1702,2013-06-16 10:48:00,
2013-06-16 06:53:00,61.5,59.5,29.95,NW,304,0.0,0.0,93,0.00,,,0.00,LWC V2.10 B1702,2013-06-16 10:53:00,
2013-06-16 06:58:00,61.6,59.6,29.95,NW,304,0.0,0.0,93,0.00,,,0.00,LWC V2.10 B1702,2013-06-16 10:58:00,
2013-06-16 07:03:00,61.8,59.8,29.95,NW,304,0.0,0.0,93,0.00,,,0.00,LWC V2.10 B1702,2013-06-16 11:03:00,
2013-06-16 07:08:00,61.9,60.2,29.95,WNW,285,0.0,1.0,94,0.00,,,0.00,LWC V2.10 B1702,2013-06-16 11:08:00,
2013-06-16 07:13:00,62.1,60.3,29.95,West,267,0.0,0.0,94,0.00,,,0.00,LWC V2.10 B1702,2013-06-16 11:13:00,
2013-06-16 07:18:00,62.2,60.1,29.95,West,274,0.0,0.0,93,0.00,,,0.00,LWC V2.10 B1702,2013-06-16 11:18:00,
2013-06-16 07:23:00,62.4,60.3,29.95,West,263,1.0,1.0,93,0.00,,,0.00,LWC V2.10 B1702,2013-06-16 11:23:00,
2013-06-16 07:28:00,62.5,60.4,29.95,SW,222,0.0,0.0,93,0.00,,,0.00,LWC V2.10 B1702,2013-06-16 11:28:00,
2013-06-16 07:33:00,62.7,60.6,29.95,SSW,213,0.0,0.0,93,0.00,,,0.00,LWC V2.10 B1702,2013-06-16 11:33:00,
2013-06-16 07:38:00,62.8,60.7,29.96,SSW,213,0.0,0.0,93,0.00,,,0.00,LWC V2.10 B1702,2013-06-16 11:38:00,
2013-06-16 07:43:00,63.0,60.9,29.96,SSW,213,0.0,1.0,93,0.00,,,0.00,LWC V2.10 B1702,2013-06-16 11:43:00,
2013-06-16 07:48:00,63.2,61.1,29.96,SSW,209,2.0,2.0,93,0.00,,,0.00,LWC V2.10 B1702,2013-06-16 11:48:00,
2013-06-16 07:53:00,63.4,61.3,29.96,WSW,258,0.0,1.0,93,0.00,,,0.00,LWC V2.10 B1702,2013-06-16 11:53:00,
2013-06-16 07:58:00,63.6,61.2,29.96,WSW,246,1.0,2.0,92,0.00,,,0.00,LWC V2.10 B1702,2013-06-16 11:58:00,
2013-06-16 08:03:00,63.8,61.4,29.95,WSW,254,0.0,2.0,92,0.00,,,0.00,LWC V2.10 B1702,2013-06-16 12:03:00,
2013-06-16 08:08:00,64.0,61.6,29.96,WNW,290,1.0,1.0,92,0.00,,,0.00,LWC V2.10 B1702,2013-06-16 12:08:00,
2013-06-16 08:13:00,64.2,61.5,29.96,SW,223,1.0,1.0,91,0.00,,,0.00,LWC V2.10 B1702,2013-06-16 12:13:00,
2013-06-16 08:18:00,64.4,61.4,29.96,West,259,0.0,2.0,90,0.00,,,0.00,LWC V2.10 B1702,2013-06-16 12:18:00,
2013-06-16 08:23:00,64.8,61.8,29.95,SSW,197,0.0,0.0,90,0.00,,,0.00,LWC V2.10 B1702,2013-06-16 12:23:00,
2013-06-16 08:28:00,65.0,61.7,29.96,NW,321,0.0,1.0,89,0.00,,,0.00,LWC V2.10 B1702,2013-06-16 12:28:00,
2013-06-16 08:33:00,65.4,61.7,29.95,WSW,258,0.0,1.0,88,0.00,,,0.00,LWC V2.10 B1702,2013-06-16 12:33:00,
2013-06-16 08:38:00,65.9,61.9,29.95,SW,219,0.0,1.0,87,0.00,,,0.00,LWC V2.10 B1702,2013-06-16 12:38:00,
2013-06-16 08:43:00,66.2,61.5,29.95,WSW,252,1.0,1.0,85,0.00,,,0.00,LWC V2.10 B1702,2013-06-16 12:43:00,
2013-06-16 08:48:00,66.7,62.0,29.95,SSW,208,0.0,1.0,85,0.00,,,0.00,LWC V2.10 B1702,2013-06-16 12:48:00,
2013-06-16 08:53:00,67.1,61.4,29.95,SSE,148,0.0,1.0,82,0.00,,,0.00,LWC V2.10 B1702,2013-06-16 12:53:00,
2013-06-16 08:58:00,67.6,62.2,29.95,WSW,257,0.0,0.0,83,0.00,,,0.00,LWC V2.10 B1702,2013-06-16 12:58:00,
2013-06-16 09:03:00,68.0,62.3,29.95,SW,221,0.0,3.0,82,0.00,,,0.00,LWC V2.10 B1702,2013-06-16 13:03:00,
2013-06-16 09:08:00,68.3,62.2,29.95,SW,221,1.0,2.0,81,0.00,,,0.00,LWC V2.10 B1702,2013-06-16 13:08:00,
2013-06-16 09:13:00,68.5,61.7,29.95,WNW,297,0.0,0.0,79,0.00,,,0.00,LWC V2.10 B1702,2013-06-16 13:13:00,
2013-06-16 09:18:00,68.4,61.3,29.95,North,355,0.0,1.0,78,0.00,,,0.00,LWC V2.10 B1702,2013-06-16 13:18:00,
2013-06-16 09:23:00,68.4,61.6,29.95,WSW,244,0.0,1.0,79,0.00,,,0.00,LWC V2.10 B1702,2013-06-16 13:23:00,
2013-06-16 09:28:00,68.6,61.8,29.95,SW,229,0.0,2.0,79,0.00,,,0.00,LWC V2.10 B1702,2013-06-16 13:28:00,
2013-06-16 09:33:00,68.8,61.3,29.95,SW,236,0.0,2.0,77,0.00,,,0.00,LWC V2.10 B1702,2013-06-16 13:33:00,
2013-06-16 09:38:00,69.1,61.6,29.95,SW,216,1.0,2.0,77,0.00,,,0.00,LWC V2.10 B1702,2013-06-16 13:38:00,
2013-06-16 09:43:00,69.7,60.6,29.94,WSW,256,1.0,3.0,73,0.00,,,0.00,LWC V2.10 B1702,2013-06-16 13:43:00,
2013-06-16 09:48:00,70.1,59.8,29.95,WSW,238,0.0,4.0,70,0.00,,,0.00,LWC V2.10 B1702,2013-06-16 13:48:00,
2013-06-16 09:53:00,70.7,60.8,29.95,West,261,1.0,2.0,71,0.00,,,0.00,LWC V2.10 B1702,2013-06-16 13:53:00,
2013-06-16 09:58:00,71.1,60.8,29.95,WSW,254,0.0,2.0,70,0.00,,,0.00,LWC V2.10 B1702,2013-06-16 13:58:00,
2013-06-16 10:03:00,71.1,59.2,29.95,West,272,0.0,3.0,66,0.00,,,0.00,LWC V2.10 B1702,2013-06-16 14:03:00,
2013-06-16 10:08:00,71.2,60.5,29.95,WSW,242,0.0,0.0,69,0.00,,,0.00,LWC V2.10 B1702,2013-06-16 14:08:00,
2013-06-16 10:13:00,71.2,60.9,29.94,NW,323,1.0,2.0,70,0.00,,,0.00,LWC V2.10 B1702,2013-06-16 14:13:00,
2013-06-16 10:18:00,71.6,58.3,29.94,West,271,0.0,2.0,63,0.00,,,0.00,LWC V2.10 B1702,2013-06-16 14:18:00,
2013-06-16 10:23:00,71.9,58.2,29.94,West,275,0.0,3.0,62,0.00,,,0.00,LWC V2.10 B1702,2013-06-16 14:23:00,
2013-06-16 10:28:00,72.3,58.1,29.94,SW,217,2.0,4.0,61,0.00,,,0.00,LWC V2.10 B1702,2013-06-16 14:28:00,
2013-06-16 10:33:00,72.4,57.7,29.94,SW,226,0.0,5.0,60,0.00,,,0.00,LWC V2.10 B1702,2013-06-16 14:33:00,
2013-06-16 10:38:00,72.1,57.9,29.94,SW,226,2.0,3.0,61,0.00,,,0.00,LWC V2.10 B1702,2013-06-16 14:38:00,
2013-06-16 10:43:00,72.3,59.0,29.94,SW,232,1.0,2.0,63,0.00,,,0.00,LWC V2.10 B1702,2013-06-16 14:43:00,
2013-06-16 10:48:00,72.6,59.7,29.94,SW,227,0.0,1.0,64,0.00,,,0.00,LWC V2.10 B1702,2013-06-16 14:48:00,
2013-06-16 10:53:00,73.1,59.3,29.94,SW,225,2.0,4.0,62,0.00,,,0.00,LWC V2.10 B1702,2013-06-16 14:53:00,
2013-06-16 10:58:00,73.2,59.4,29.94,SW,226,0.0,3.0,62,0.00,,,0.00,LWC V2.10 B1702,2013-06-16 14:58:00,
2013-06-16 11:03:00,72.8,59.5,29.94,West,269,2.0,5.0,63,0.00,,,0.00,LWC V2.10 B1702,2013-06-16 15:03:00,
2013-06-16 11:08:00,72.1,59.2,29.94,WNW,296,0.0,3.0,64,0.00,,,0.00,LWC V2.10 B1702,2013-06-16 15:08:00,
2013-06-16 11:13:00,71.7,60.1,29.93,WNW,302,0.0,2.0,67,0.00,,,0.00,LWC V2.10 B1702,2013-06-16 15:13:00,
2013-06-16 11:18:00,71.8,61.1,29.93,WNW,297,0.0,4.0,69,0.00,,,0.00,LWC V2.10 B1702,2013-06-16 15:18:00,
2013-06-16 11:23:00,72.3,60.7,29.93,WNW,293,1.0,1.0,67,0.00,,,0.00,LWC V2.10 B1702,2013-06-16 15:23:00,
2013-06-16 11:28:00,72.9,60.4,29.93,West,268,1.0,4.0,65,0.00,,,0.00,LWC V2.10 B1702,2013-06-16 15:28:00,
2013-06-16 11:33:00,73.3,60.4,29.93,NE,55,0.0,4.0,64,0.00,,,0.00,LWC V2.10 B1702,2013-06-16 15:33:00,
2013-06-16 11:38:00,73.5,60.1,29.93,East,93,1.0,3.0,63,0.00,,,0.00,LWC V2.10 B1702,2013-06-16 15:38:00,
2013-06-16 11:43:00,73.2,60.3,29.92,SW,232,1.0,2.0,64,0.00,,,0.00,LWC V2.10 B1702,2013-06-16 15:43:00,
2013-06-16 11:48:00,73.2,61.1,29.92,WSW,247,1.0,3.0,66,0.00,,,0.00,LWC V2.10 B1702,2013-06-16 15:48:00,
2013-06-16 11:53:00,73.8,60.8,29.92,South,189,0.0,3.0,64,0.00,,,0.00,LWC V2.10 B1702,2013-06-16 15:53:00,
2013-06-16 11:58:00,74.4,61.8,29.92,ESE,121,0.0,2.0,65,0.00,,,0.00,LWC V2.10 B1702,2013-06-16 15:58:00,
2013-06-16 12:03:00,74.9,60.1,29.92,SSW,213,1.0,2.0,60,0.00,,,0.00,LWC V2.10 B1702,2013-06-16 16:03:00,
2013-06-16 12:08:00,75.0,60.6,29.92,WSW,257,1.0,2.0,61,0.00,,,0.00,LWC V2.10 B1702,2013-06-16 16:08:00,
2013-06-16 12:13:00,74.7,60.3,29.92,SW,232,2.0,2.0,61,0.00,,,0.00,LWC V2.10 B1702,2013-06-16 16:13:00,
2013-06-16 12:18:00,74.1,60.7,29.91,NNW,327,2.0,2.0,63,0.00,,,0.00,LWC V2.10 B1702,2013-06-16 16:18:00,
2013-06-16 12:23:00,73.4,59.1,29.91,NNE,15,0.0,3.0,61,0.00,,,0.00,LWC V2.10 B1702,2013-06-16 16:23:00,
2013-06-16 12:28:00,73.0,60.1,29.91,West,273,4.0,5.0,64,0.00,,,0.00,LWC V2.10 B1702,2013-06-16 16:28:00,
2013-06-16 12:33:00,72.6,59.7,29.91,WNW,295,2.0,2.0,64,0.00,,,0.00,LWC V2.10 B1702,2013-06-16 16:33:00,
2013-06-16 12:38:00,72.0,59.6,29.90,West,275,1.0,1.0,65,0.00,,,0.00,LWC V2.10 B1702,2013-06-16 16:38:00,
2013-06-16 12:43:00,71.7,60.6,29.90,West,263,0.0,1.0,68,0.00,,,0.00,LWC V2.10 B1702,2013-06-16 16:43:00,
2013-06-16 12:48:00,71.5,61.2,29.90,West,260,0.0,2.0,70,0.00,,,0.00,LWC V2.10 B1702,2013-06-16 16:48:00,
2013-06-16 12:53:00,71.3,60.6,29.90,SW,236,0.0,0.0,69,0.00,,,0.00,LWC V2.10 B1702,2013-06-16 16:53:00,
2013-06-16 12:58:00,71.1,59.6,29.90,WSW,238,1.0,1.0,67,0.00,,,0.00,LWC V2.10 B1702,2013-06-16 16:58:00,
2013-06-16 13:03:00,71.1,60.4,29.89,SW,231,1.0,2.0,69,0.00,,,0.00,LWC V2.10 B1702,2013-06-16 17:03:00,
2013-06-16 13:08:00,70.9,59.8,29.90,West,261,0.0,2.0,68,0.00,,,0.00,LWC V2.10 B1702,2013-06-16 17:08:00,
2013-06-16 13:13:00,71.1,59.2,29.89,WSW,240,0.0,3.0,66,0.00,,,0.00,LWC V2.10 B1702,2013-06-16 17:13:00,
2013-06-16 13:18:00,71.0,60.3,29.90,WSW,238,2.0,3.0,69,0.00,,,0.00,LWC V2.10 B1702,2013-06-16 17:18:00,
2013-06-16 13:23:00,70.7,60.4,29.90,NW,309,0.0,3.0,70,0.00,,,0.00,LWC V2.10 B1702,2013-06-16 17:23:00,
2013-06-16 13:28:00,70.3,60.4,29.89,WNW,289,1.0,2.0,71,0.00,,,0.00,LWC V2.10 B1702,2013-06-16 17:28:00,
2013-06-16 13:33:00,70.1,60.6,29.89,WNW,288,0.0,1.0,72,0.00,,,0.00,LWC V2.10 B1702,2013-06-16 17:33:00,
2013-06-16 13:38:00,70.2,61.5,29.89,SSW,206,1.0,3.0,74,0.00,,,0.00,LWC V2.10 B1702,2013-06-16 17:38:00,
2013-06-16 13:43:00,70.7,61.6,29.89,SW,221,1.0,2.0,73,0.00,,,0.00,LWC V2.10 B1702,2013-06-16 17:43:00,
2013-06-16 13:48:00,71.4,62.3,29.89,West,270,0.0,3.0,73,0.00,,,0.00,LWC V2.10 B1702,2013-06-16 17:48:00,
2013-06-16 13:53:00,72.2,62.3,29.88,NNW,328,0.0,3.0,71,0.00,,,0.00,LWC V2.10 B1702,2013-06-16 17:53:00,
2013-06-16 13:58:00,72.5,61.3,29.88,WNW,298,2.0,3.0,68,0.00,,,0.00,LWC V2.10 B1702,2013-06-16 17:58:00,
2013-06-16 14:03:00,72.4,61.2,29.88,North,5,3.0,6.0,68,0.00,,,0.00,LWC V2.10 B1702,2013-06-16 18:03:00,
2013-06-16 14:08:00,72.3,62.0,29.88,WSW,254,0.0,2.0,70,0.00,,,0.00,LWC V2.10 B1702,2013-06-16 18:08:00,
2013-06-16 14:13:00,72.4,61.6,29.88,SW,225,0.0,1.0,69,0.00,,,0.00,LWC V2.10 B1702,2013-06-16 18:13:00,
2013-06-16 14:18:00,72.5,63.3,29.88,WNW,297,0.0,5.0,73,0.00,,,0.00,LWC V2.10 B1702,2013-06-16 18:18:00,
2013-06-16 14:23:00,72.1,60.9,29.88,WSW,254,2.0,4.0,68,0.00,,,0.00,LWC V2.10 B1702,2013-06-16 18:23:00,
2013-06-16 14:28:00,71.4,61.1,29.88,WSW,250,1.0,2.0,70,0.00,,,0.00,LWC V2.10 B1702,2013-06-16 18:28:00,
2013-06-16 14:33:00,71.3,61.8,29.88,West,267,0.0,1.0,72,0.00,,,0.00,LWC V2.10 B1702,2013-06-16 18:33:00,
2013-06-16 14:38:00,71.7,61.4,29.87,South,182,4.0,4.0,70,0.00,,,0.00,LWC V2.10 B1702,2013-06-16 18:38:00,
2013-06-16 14:43:00,72.1,61.8,29.87,WNW,302,0.0,1.0,70,0.00,,,0.00,LWC V2.10 B1702,2013-06-16 18:43:00,
2013-06-16 14:48:00,72.0,61.3,29.86,WSW,239,1.0,2.0,69,0.00,,,0.00,LWC V2.10 B1702,2013-06-16 18:48:00,
2013-06-16 14:53:00,71.5,61.6,29.86,WNW,296,0.0,4.0,71,0.00,,,0.00,LWC V2.10 B1702,2013-06-16 18:53:00,
2013-06-16 14:58:00,71.1,61.6,29.86,SW,229,1.0,2.0,72,0.00,,,0.00,LWC V2.10 B1702,2013-06-16 18:58:00,
2013-06-16 15:03:00,70.9,61.8,29.85,West,281,0.0,2.0,73,0.00,,,0.00,LWC V2.10 B1702,2013-06-16 19:03:00,
2013-06-16 15:08:00,70.6,60.7,29.85,WSW,251,2.0,3.0,71,0.00,,,0.00,LWC V2.10 B1702,2013-06-16 19:08:00,
2013-06-16 15:13:00,70.5,60.6,29.85,WSW,249,0.0,4.0,71,0.00,,,0.00,LWC V2.10 B1702,2013-06-16 19:13:00,
2013-06-16 15:18:00,70.6,61.1,29.85,SW,219,0.0,2.0,72,0.00,,,0.00,LWC V2.10 B1702,2013-06-16 19:18:00,
2013-06-16 15:23:00,70.8,61.3,29.84,SSW,213,2.0,4.0,72,0.00,,,0.00,LWC V2.10 B1702,2013-06-16 19:23:00,
2013-06-16 15:28:00,70.8,60.9,29.84,SSW,193,0.0,3.0,71,0.00,,,0.00,LWC V2.10 B1702,2013-06-16 19:28:00,
2013-06-16 15:33:00,70.6,60.3,29.84,WSW,247,3.0,3.0,70,0.00,,,0.00,LWC V2.10 B1702,2013-06-16 19:33:00,
2013-06-16 15:38:00,70.3,60.4,29.83,SSW,205,0.0,1.0,71,0.00,,,0.00,LWC V2.10 B1702,2013-06-16 19:38:00,
2013-06-16 15:43:00,69.9,60.8,29.83,North,5,2.0,2.0,73,0.00,,,0.00,LWC V2.10 B1702,2013-06-16 19:43:00,
2013-06-16 15:48:00,69.8,61.1,29.83,NW,321,0.0,2.0,74,0.00,,,0.00,LWC V2.10 B1702,2013-06-16 19:48:00,
2013-06-16 15:53:00,69.7,60.6,29.83,WSW,239,1.0,2.0,73,0.00,,,0.00,LWC V2.10 B1702,2013-06-16 19:53:00,
2013-06-16 15:58:00,69.6,60.5,29.83,South,190,1.0,3.0,73,0.00,,,0.00,LWC V2.10 B1702,2013-06-16 19:58:00,
2013-06-16 16:03:00,69.5,58.9,29.83,West,261,3.0,3.0,69,0.00,,,0.00,LWC V2.10 B1702,2013-06-16 20:03:00,
2013-06-16 16:08:00,69.4,59.2,29.83,SW,221,2.0,4.0,70,0.00,,,0.00,LWC V2.10 B1702,2013-06-16 20:08:00,
2013-06-16 16:13:00,69.1,59.3,29.82,SW,236,0.0,1.0,71,0.00,,,0.00,LWC V2.10 B1702,2013-06-16 20:13:00,
2013-06-16 16:18:00,69.0,60.0,29.82,NW,312,0.0,2.0,73,0.00,,,0.00,LWC V2.10 B1702,2013-06-16 20:18:00,
2013-06-16 16:23:00,68.8,59.4,29.82,West,259,0.0,0.0,72,0.00,,,0.00,LWC V2.10 B1702,2013-06-16 20:23:00,
2013-06-16 16:28:00,68.7,59.3,29.82,WSW,246,0.0,1.0,72,0.00,,,0.00,LWC V2.10 B1702,2013-06-16 20:28:00,
2013-06-16 16:33:00,68.6,60.0,29.82,West,267,0.0,3.0,74,0.00,,,0.00,LWC V2.10 B1702,2013-06-16 20:33:00,
2013-06-16 16:38:00,68.6,59.2,29.82,WSW,241,0.0,0.0,72,0.00,,,0.00,LWC V2.10 B1702,2013-06-16 20:38:00,
2013-06-16 16:43:00,68.6,60.0,29.82,SW,217,0.0,0.0,74,0.00,,,0.00,LWC V2.10 B1702,2013-06-16 20:43:00,
2013-06-16 16:48:00,68.6,59.6,29.81,WSW,240,0.0,2.0,73,0.00,,,0.00,LWC V2.10 B1702,2013-06-16 20:48:00,
2013-06-16 16:53:00,68.7,59.7,29.81,SSE,165,1.0,2.0,73,0.00,,,0.00,LWC V2.10 B1702,2013-06-16 20:53:00,
2013-06-16 16:58:00,68.9,60.6,29.81,SW,227,0.0,0.0,75,0.00,,,0.00,LWC V2.10 B1702,2013-06-16 20:58:00,
2013-06-16 17:03:00,69.1,60.8,29.81,WSW,239,2.0,3.0,75,0.00,,,0.00,LWC V2.10 B1702,2013-06-16 21:03:00,
2013-06-16 17:08:00,69.2,60.9,29.81,SW,236,0.0,2.0,75,0.00,,,0.00,LWC V2.10 B1702,2013-06-16 21:08:00,
2013-06-16 17:13:00,69.4,61.1,29.81,SW,232,0.0,3.0,75,0.00,,,0.00,LWC V2.10 B1702,2013-06-16 21:13:00,
2013-06-16 17:18:00,69.5,61.6,29.81,SW,234,0.0,6.0,76,0.00,,,0.00,LWC V2.10 B1702,2013-06-16 21:18:00,
2013-06-16 17:23:00,69.5,62.3,29.80,SW,215,2.0,7.0,78,0.00,,,0.00,LWC V2.10 B1702,2013-06-16 21:23:00,
2013-06-16 17:28:00,69.5,62.0,29.80,WSW,246,2.0,7.0,77,0.00,,,0.00,LWC V2.10 B1702,2013-06-16 21:28:00,
2013-06-16 17:33:00,69.5,62.0,29.80,SW,217,1.0,5.0,77,0.00,,,0.00,LWC V2.10 B1702,2013-06-16 21:33:00,
2013-06-16 17:38:00,69.5,62.7,29.80,NNW,333,1.0,2.0,79,0.00,,,0.00,LWC V2.10 B1702,2013-06-16 21:38:00,
2013-06-16 17:43:00,69.4,62.2,29.80,WSW,244,2.0,2.0,78,0.00,,,0.00,LWC V2.10 B1702,2013-06-16 21:43:00,
2013-06-16 17:48:00,69.3,62.1,29.80,SW,228,0.0,4.0,78,0.00,,,0.00,LWC V2.10 B1702,2013-06-16 21:48:00,
2013-06-16 17:53:00,69.1,61.9,29.80,SW,229,1.0,6.0,78,0.00,,,0.00,LWC V2.10 B1702,2013-06-16 21:53:00,
2013-06-16 17:58:00,68.8,62.0,29.80,SW,215,2.0,3.0,79,0.00,,,0.00,LWC V2.10 B1702,2013-06-16 21:58:00,
2013-06-16 18:03:00,68.6,62.2,29.80,SW,231,3.0,5.0,80,0.00,,,0.00,LWC V2.10 B1702,2013-06-16 22:03:00,
2013-06-16 18:08:00,68.3,61.9,29.79,WSW,238,0.0,2.0,80,0.00,,,0.00,LWC V2.10 B1702,2013-06-16 22:08:00,
2013-06-16 18:13:00,68.1,62.0,29.79,WSW,254,0.0,3.0,81,0.00,,,0.00,LWC V2.10 B1702,2013-06-16 22:13:00,
2013-06-16 18:18:00,68.0,62.3,29.79,SW,222,5.0,6.0,82,0.00,,,0.00,LWC V2.10 B1702,2013-06-16 22:18:00,
2013-06-16 18:23:00,67.7,62.0,29.79,WSW,241,4.0,9.0,82,0.00,,,0.00,LWC V2.10 B1702,2013-06-16 22:23:00,
2013-06-16 18:28:00,67.5,62.1,29.79,West,272,5.0,6.0,83,0.00,,,0.00,LWC V2.10 B1702,2013-06-16 22:28:00,
2013-06-16 18:33:00,67.3,62.0,29.79,SW,223,2.0,2.0,83,0.00,,,0.00,LWC V2.10 B1702,2013-06-16 22:33:00,
2013-06-16 18:38:00,67.1,61.8,29.79,North,355,0.0,6.0,83,0.00,,,0.00,LWC V2.10 B1702,2013-06-16 22:38:00,
2013-06-16 18:44:00,67.0,62.0,29.80,West,271,2.0,5.0,84,0.00,,,0.00,LWC V2.10 B1702,2013-06-16 22:44:00,
2013-06-16 18:49:00,66.9,61.9,29.80,North,0,7.0,7.0,84,0.00,,,0.00,LWC V2.10 B1702,2013-06-16 22:49:00,
2013-06-16 18:54:00,66.8,61.8,29.79,NNW,341,4.0,5.0,84,0.00,,,0.00,LWC V2.10 B1702,2013-06-16 22:54:00,
2013-06-16 18:59:00,66.7,61.7,29.79,NW,313,3.0,4.0,84,0.00,,,0.00,LWC V2.10 B1702,2013-06-16 22:59:00,
2013-06-16 19:04:00,66.5,61.8,29.79,NNW,331,2.0,4.0,85,0.00,,,0.00,LWC V2.10 B1702,2013-06-16 23:04:00,
2013-06-16 19:09:00,66.3,61.6,29.79,SSE,161,2.0,5.0,85,0.00,,,0.00,LWC V2.10 B1702,2013-06-16 23:09:00,
2013-06-16 19:14:00,66.2,61.9,29.80,WNW,297,2.0,4.0,86,0.00,,,0.00,LWC V2.10 B1702,2013-06-16 23:14:00,
2013-06-16 19:19:00,66.0,61.7,29.79,SSW,192,3.0,5.0,86,0.00,,,0.00,LWC V2.10 B1702,2013-06-16 23:19:00,
2013-06-16 19:24:00,65.9,61.6,29.79,SW,225,1.0,4.0,86,0.00,,,0.00,LWC V2.10 B1702,2013-06-16 23:24:00,
2013-06-16 19:29:00,65.7,61.4,29.79,SW,229,1.0,9.0,86,0.00,,,0.00,LWC V2.10 B1702,2013-06-16 23:29:00,
2013-06-16 19:34:00,65.6,61.3,29.79,SW,221,2.0,5.0,86,0.00,,,0.00,LWC V2.10 B1702,2013-06-16 23:34:00,
2013-06-16 19:39:00,65.5,61.5,29.79,WSW,248,2.0,5.0,87,0.00,,,0.00,LWC V2.10 B1702,2013-06-16 23:39:00,
2013-06-16 19:44:00,65.4,61.4,29.78,SW,228,0.0,2.0,87,0.00,,,0.00,LWC V2.10 B1702,2013-06-16 23:44:00,
2013-06-16 19:49:00,65.3,61.3,29.78,SSW,205,3.0,3.0,87,0.00,,,0.00,LWC V2.10 B1702,2013-06-16 23:49:00,
2013-06-16 19:54:00,65.2,61.2,29.78,WSW,254,1.0,3.0,87,0.00,,,0.00,LWC V2.10 B1702,2013-06-16 23:54:00,
2013-06-16 19:59:00,65.1,61.1,29.77,West,262,4.0,6.0,87,0.00,,,0.00,LWC V2.10 B1702,2013-06-16 23:59:00,
2013-06-16 20:04:00,65.0,61.4,29.78,WSW,238,0.0,3.0,88,0.00,,,0.00,LWC V2.10 B1702,2013-06-17 00:04:00,
2013-06-16 20:09:00,64.9,61.3,29.77,West,275,0.0,4.0,88,0.00,,,0.00,LWC V2.10 B1702,2013-06-17 00:09:00,
2013-06-16 20:14:00,64.8,60.8,29.77,SSW,204,0.0,4.0,87,0.00,,,0.00,LWC V2.10 B1702,2013-06-17 00:14:00,
2013-06-16 20:19:00,64.7,61.1,29.77,SSW,206,0.0,5.0,88,0.00,,,0.00,LWC V2.10 B1702,2013-06-17 00:19:00,
2013-06-16 20:24:00,64.6,61.0,29.78,SW,234,2.0,3.0,88,0.00,,,0.00,LWC V2.10 B1702,2013-06-17 00:24:00,
2013-06-16 20:29:00,64.5,60.9,29.78,WSW,254,1.0,5.0,88,0.00,,,0.00,LWC V2.10 B1702,2013-06-17 00:29:00,
2013-06-16 20:34:00,64.5,60.9,29.78,WSW,243,0.0,3.0,88,0.00,,,0.00,LWC V2.10 B1702,2013-06-17 00:34:00,
2013-06-16 20:39:00,64.4,60.8,29.77,SW,234,2.0,2.0,88,0.00,,,0.00,LWC V2.10 B1702,2013-06-17 00:39:00,
2013-06-16 20:44:00,64.3,60.7,29.78,WSW,244,0.0,4.0,88,0.00,,,0.00,LWC V2.10 B1702,2013-06-17 00:44:00,
2013-06-16 20:49:00,64.2,60.6,29.78,West,266,2.0,4.0,88,0.00,,,0.00,LWC V2.10 B1702,2013-06-17 00:49:00,
2013-06-16 20:54:00,64.2,60.6,29.78,NW,308,2.0,3.0,88,0.00,,,0.00,LWC V2.10 B1702,2013-06-17 00:54:00,
2013-06-16 20:59:00,64.2,60.9,29.78,West,267,1.0,2.0,89,0.00,,,0.00,LWC V2.10 B1702,2013-06-17 00:59:00,
2013-06-16 21:04:00,64.2,60.9,29.78,WSW,253,1.0,1.0,89,0.00,,,0.00,LWC V2.10 B1702,2013-06-17 01:04:00,
2013-06-16 21:09:00,64.2,60.9,29.78,NNW,327,0.0,4.0,89,0.00,,,0.00,LWC V2.10 B1702,2013-06-17 01:09:00,
2013-06-16 21:14:00,64.2,60.9,29.79,WNW,286,2.0,5.0,89,0.00,,,0.00,LWC V2.10 B1702,2013-06-17 01:14:00,
2013-06-16 21:19:00,64.2,60.9,29.78,West,277,0.0,4.0,89,0.00,,,0.00,LWC V2.10 B1702,2013-06-17 01:19:00,
2013-06-16 21:24:00,64.2,60.9,29.79,WSW,241,1.0,2.0,89,0.00,,,0.00,LWC V2.10 B1702,2013-06-17 01:24:00,
2013-06-16 21:29:00,64.2,60.9,29.79,WSW,240,3.0,3.0,89,0.00,,,0.00,LWC V2.10 B1702,2013-06-17 01:29:00,
2013-06-16 21:34:00,64.1,60.8,29.79,NW,318,0.0,2.0,89,0.00,,,0.00,LWC V2.10 B1702,2013-06-17 01:34:00,
2013-06-16 21:39:00,64.1,60.8,29.79,WSW,240,0.0,2.0,89,0.00,,,0.00,LWC V2.10 B1702,2013-06-17 01:39:00,
2013-06-16 21:44:00,64.1,60.8,29.79,WSW,240,2.0,6.0,89,0.00,,,0.00,LWC V2.10 B1702,2013-06-17 01:44:00,
2013-06-16 21:49:00,64.1,60.8,29.79,WSW,257,1.0,3.0,89,0.00,,,0.00,LWC V2.10 B1702,2013-06-17 01:49:00,
2013-06-16 21:54:00,64.2,60.9,29.79,SW,230,1.0,2.0,89,0.00,,,0.00,LWC V2.10 B1702,2013-06-17 01:54:00,
2013-06-16 21:59:00,64.1,60.8,29.79,SW,234,2.0,3.0,89,0.00,,,0.00,LWC V2.10 B1702,2013-06-17 01:59:00,
2013-06-16 22:04:00,64.1,60.8,29.79,West,273,2.0,2.0,89,0.00,,,0.00,LWC V2.10 B1702,2013-06-17 02:04:00,
2013-06-16 22:09:00,64.1,60.8,29.79,NW,318,0.0,1.0,89,0.00,,,0.00,LWC V2.10 B1702,2013-06-17 02:09:00,
2013-06-16 22:14:00,64.1,60.8,29.79,SW,214,1.0,2.0,89,0.00,,,0.00,LWC V2.10 B1702,2013-06-17 02:14:00,
2013-06-16 22:19:00,64.1,60.8,29.79,West,264,0.0,1.0,89,0.00,,,0.00,LWC V2.10 B1702,2013-06-17 02:19:00,
2013-06-16 22:24:00,64.2,60.9,29.79,West,263,1.0,4.0,89,0.00,,,0.00,LWC V2.10 B1702,2013-06-17 02:24:00,
2013-06-16 22:29:00,64.2,60.9,29.79,West,269,0.0,2.0,89,0.00,,,0.00,LWC V2.10 B1702,2013-06-17 02:29:00,
2013-06-16 22:34:00,64.2,60.9,29.79,West,261,1.0,3.0,89,0.00,,,0.00,LWC V2.10 B1702,2013-06-17 02:34:00,
2013-06-16 22:39:00,64.2,60.9,29.79,SSW,208,1.0,3.0,89,0.00,,,0.00,LWC V2.10 B1702,2013-06-17 02:39:00,
2013-06-16 22:44:00,64.2,60.9,29.79,WSW,239,0.0,4.0,89,0.00,,,0.00,LWC V2.10 B1702,2013-06-17 02:44:00,
2013-06-16 22:49:00,64.2,60.9,29.78,WSW,258,0.0,0.0,89,0.00,,,0.00,LWC V2.10 B1702,2013-06-17 02:49:00,
2013-06-16 22:54:00,64.2,60.9,29.79,North,5,1.0,4.0,89,0.00,,,0.00,LWC V2.10 B1702,2013-06-17 02:54:00,
2013-06-16 22:59:00,64.2,60.9,29.79,NW,322,1.0,2.0,89,0.00,,,0.00,LWC V2.10 B1702,2013-06-17 02:59:00,
2013-06-16 23:04:00,64.2,60.9,29.79,WNW,288,0.0,1.0,89,0.00,,,0.00,LWC V2.10 B1702,2013-06-17 03:04:00,
2013-06-16 23:09:00,64.2,60.9,29.80,WSW,248,3.0,4.0,89,0.00,,,0.00,LWC V2.10 B1702,2013-06-17 03:09:00,
2013-06-16 23:14:00,64.3,61.0,29.80,WNW,283,0.0,5.0,89,0.00,,,0.00,LWC V2.10 B1702,2013-06-17 03:14:00,
2013-06-16 23:19:00,64.3,61.0,29.80,West,270,0.0,5.0,89,0.00,,,0.00,LWC V2.10 B1702,2013-06-17 03:19:00,
2013-06-16 23:24:00,64.3,61.0,29.79,West,281,1.0,5.0,89,0.00,,,0.00,LWC V2.10 B1702,2013-06-17 03:24:00,
2013-06-16 23:29:00,64.4,61.1,29.79,WSW,254,0.0,1.0,89,0.00,,,0.00,LWC V2.10 B1702,2013-06-17 03:29:00,
2013-06-16 23:30:00,64.4,61.1,29.79,WNW,282,0.0,1.0,89,0.00,,,0.00,LWC V2.10 B1702,2013-06-17 03:30:00,
2013-06-16 23:35:00,64.4,61.1,29.79,WSW,243,3.0,4.0,89,0.00,,,0.00,LWC V2.10 B1702,2013-06-17 03:35:00,
2013-06-16 23:40:00,64.4,61.1,29.79,WSW,258,0.0,0.0,89,0.00,,,0.00,LWC V2.10 B1702,2013-06-17 03:40:00,
2013-06-16 23:45:00,64.3,61.0,29.79,NNE,13,1.0,2.0,89,0.00,,,0.00,LWC V2.10 B1702,2013-06-17 03:45:00,
2013-06-16 23:50:00,64.3,61.0,29.80,SE,146,2.0,3.0,89,0.00,,,0.00,LWC V2.10 B1702,2013-06-17 03:50:00,
2013-06-16 23:55:00,64.3,61.0,29.80,SW,216,0.0,3.0,89,0.00,,,0.00,LWC V2.10 B1702,2013-06-17 03:55:00,